Time,TemperatureF,DewpointF,PressureIn,WindDirection,WindDirectionDegrees,WindSpeedMPH,WindSpeedGustMPH,Humidity,HourlyPrecipIn,Conditions,Clouds,dailyrainin,SoftwareType,DateUTC
2013-04-12 00:02:00,29.0,28.0,-100.00,SE,138,2.0,3.0,96,0.01,,,-99.99,,2013-04-12 06:02:00,
2013-04-12 00:12:00,29.0,28.0,-100.00,SE,130,2.0,4.0,96,0.01,,,-99.99,,2013-04-12 06:12:00,
2013-04-12 00:22:00,29.0,28.0,-100.00,SSE,157,2.0,4.0,97,0.00,,,-99.99,,2013-04-12 06:22:00,
2013-04-12 00:32:00,29.0,28.0,-100.00,South,189,1.0,2.0,97,0.00,,,-99.99,,2013-04-12 06:32:00,
2013-04-12 00:42:00,29.0,28.0,-100.00,South,185,2.0,4.0,98,0.00,,,-99.99,,2013-04-12 06:42:00,
2013-04-12 00:52:00,28.0,28.0,-100.00,SSE,162,2.0,3.0,98,0.00,,,-99.99,,2013-04-12 06:52:00,
2013-04-12 01:01:00,28.0,28.0,-100.00,SE,138,2.0,4.0,98,0.00,,,-99.99,,2013-04-12 07:01:00,
2013-04-12 01:11:00,28.0,28.0,-100.00,SE,127,2.0,4.0,98,0.00,,,-99.99,,2013-04-12 07:11:00,
2013-04-12 01:22:00,28.0,28.0,-100.00,SE,128,2.0,4.0,98,0.00,,,-99.99,,2013-04-12 07:22:00,
2013-04-12 01:32:00,28.0,28.0,-100.00,SE,141,2.0,4.0,98,0.00,,,-99.99,,2013-04-12 07:32:00,
2013-04-12 01:42:00,28.0,28.0,-100.00,SE,126,4.0,6.0,98,0.00,,,-99.99,,2013-04-12 07:42:00,
2013-04-12 01:52:00,29.0,28.0,-100.00,SE,124,4.0,6.0,98,0.00,,,-99.99,,2013-04-12 07:52:00,
2013-04-12 02:03:00,29.0,28.0,-100.00,SE,133,3.0,5.0,98,0.00,,,-99.99,,2013-04-12 08:03:00,
2013-04-12 02:22:00,29.0,29.0,-100.00,SE,127,2.0,6.0,97,0.00,,,-99.99,,2013-04-12 08:22:00,
2013-04-12 02:32:00,29.0,29.0,-100.00,ESE,117,2.0,4.0,97,-99.99,,,-99.99,,2013-04-12 08:32:00,
2013-04-12 02:42:00,29.0,28.0,-100.00,ESE,119,3.0,6.0,96,0.00,,,-99.99,,2013-04-12 08:42:00,
2013-04-12 02:52:00,29.0,28.0,-100.00,SE,126,3.0,5.0,94,0.00,,,-99.99,,2013-04-12 08:52:00,
2013-04-12 03:02:00,29.0,27.0,-100.00,ESE,121,3.0,4.0,91,0.00,,,-99.99,,2013-04-12 09:02:00,
2013-04-12 03:12:00,29.0,26.0,-100.00,ESE,112,4.0,6.0,90,0.00,,,-99.99,,2013-04-12 09:12:00,
2013-04-12 03:22:00,28.0,26.0,-100.00,ESE,112,3.0,5.0,90,0.00,,,-99.99,,2013-04-12 09:22:00,
2013-04-12 03:32:00,27.0,25.0,-100.00,SSE,155,2.0,6.0,90,0.00,,,-99.99,,2013-04-12 09:32:00,
2013-04-12 03:43:00,27.0,25.0,-100.00,SSE,160,4.0,8.0,90,0.00,,,-99.99,,2013-04-12 09:43:00,
2013-04-12 03:52:00,28.0,26.0,-100.00,SSE,164,7.0,11.0,89,0.00,,,-99.99,,2013-04-12 09:52:00,
2013-04-12 04:02:00,29.0,26.0,-100.00,South,171,7.0,11.0,89,0.00,,,-99.99,,2013-04-12 10:02:00,
2013-04-12 04:12:00,29.0,26.0,-100.00,South,172,7.0,11.0,87,0.00,,,-99.99,,2013-04-12 10:12:00,
2013-04-12 04:23:00,30.0,26.0,-100.00,South,172,9.0,12.0,85,0.00,,,-99.99,,2013-04-12 10:23:00,
2013-04-12 04:33:00,30.0,26.0,-100.00,SSE,168,11.0,16.0,83,0.00,,,-99.99,,2013-04-12 10:33:00,
2013-04-12 04:42:00,30.0,26.0,-100.00,South,169,11.0,14.0,84,0.00,,,-99.99,,2013-04-12 10:42:00,
2013-04-12 04:52:00,31.0,26.0,-100.00,SSE,155,13.0,18.0,81,0.00,,,-99.99,,2013-04-12 10:52:00,
2013-04-12 05:02:00,30.0,25.0,-100.00,SSE,150,14.0,19.0,81,0.00,,,-99.99,,2013-04-12 11:02:00,
2013-04-12 05:12:00,30.0,24.0,-100.00,SSE,150,16.0,19.0,78,0.00,,,-99.99,,2013-04-12 11:12:00,
2013-04-12 05:22:00,30.0,24.0,-100.00,SSE,154,14.0,19.0,78,0.00,,,-99.99,,2013-04-12 11:22:00,
2013-04-12 05:32:00,30.0,24.0,-100.00,SSE,151,15.0,21.0,77,0.00,,,-99.99,,2013-04-12 11:32:00,
2013-04-12 05:42:00,30.0,24.0,-100.00,SSE,150,14.0,19.0,78,0.00,,,-99.99,,2013-04-12 11:42:00,
2013-04-12 05:52:00,30.0,24.0,-100.00,SSE,151,18.0,22.0,76,0.00,,,-99.99,,2013-04-12 11:52:00,
2013-04-12 06:02:00,30.0,24.0,-100.00,SSE,160,17.0,22.0,77,-99.99,,,-99.99,,2013-04-12 12:02:00,
2013-04-12 06:12:00,30.0,24.0,-100.00,SSE,162,16.0,22.0,78,-99.99,,,-99.99,,2013-04-12 12:12:00,
2013-04-12 06:22:00,30.0,23.0,-100.00,SSE,157,18.0,24.0,76,0.00,,,-99.99,,2013-04-12 12:22:00,
2013-04-12 06:32:00,30.0,24.0,-100.00,SSE,154,19.0,23.0,77,0.00,,,-99.99,,2013-04-12 12:32:00,
2013-04-12 06:42:00,30.0,23.0,-100.00,SSE,155,21.0,26.0,77,0.00,,,-99.99,,2013-04-12 12:42:00,
2013-04-12 06:52:00,30.0,23.0,-100.00,SSE,158,21.0,25.0,77,0.00,,,-99.99,,2013-04-12 12:52:00,
2013-04-12 07:03:00,30.0,23.0,-100.00,SSE,155,19.0,25.0,75,0.00,,,-99.99,,2013-04-12 13:03:00,
2013-04-12 07:12:00,30.0,23.0,-100.00,SSE,152,17.0,21.0,76,0.00,,,-99.99,,2013-04-12 13:12:00,
2013-04-12 07:22:00,30.0,23.0,-100.00,SSE,155,16.0,20.0,75,0.00,,,-99.99,,2013-04-12 13:22:00,
2013-04-12 07:32:00,30.0,24.0,-100.00,SSE,160,16.0,20.0,76,0.00,,,-99.99,,2013-04-12 13:32:00,
2013-04-12 07:42:00,30.0,24.0,-100.00,SSE,164,16.0,21.0,77,0.00,,,-99.99,,2013-04-12 13:42:00,
2013-04-12 07:52:00,31.0,24.0,-100.00,SSE,161,17.0,23.0,76,0.00,,,-99.99,,2013-04-12 13:52:00,
2013-04-12 08:03:00,31.0,25.0,-100.00,SSE,157,21.0,27.0,79,0.00,,,-99.99,,2013-04-12 14:03:00,
2013-04-12 08:12:00,31.0,26.0,-100.00,SSE,158,22.0,27.0,82,0.00,,,-99.99,,2013-04-12 14:12:00,
2013-04-12 08:22:00,30.0,27.0,-100.00,SSE,158,19.0,24.0,89,0.00,,,-99.99,,2013-04-12 14:22:00,
2013-04-12 08:33:00,-999.0,-99.9,-100.00,SSE,155,18.0,22.0,-999,-99.99,,,-99.99,,2013-04-12 14:33:00,
2013-04-12 08:42:00,31.0,28.0,-100.00,SSE,155,18.0,22.0,91,0.00,,,-99.99,,2013-04-12 14:42:00,
2013-04-12 08:52:00,32.0,27.0,-100.00,SSE,154,17.0,21.0,82,0.00,,,-99.99,,2013-04-12 14:52:00,
2013-04-12 09:02:00,31.0,26.0,-100.00,SSE,157,19.0,24.0,80,0.00,,,-99.99,,2013-04-12 15:02:00,
2013-04-12 09:12:00,31.0,26.0,-100.00,SSE,164,19.0,24.0,81,0.00,,,-99.99,,2013-04-12 15:12:00,
2013-04-12 09:22:00,-999.0,-99.9,-100.00,South,188,22.0,33.0,-999,-99.99,,,-99.99,,2013-04-12 15:22:00,
2013-04-12 09:33:00,31.0,27.0,-100.00,South,179,17.0,21.0,83,0.00,,,-99.99,,2013-04-12 15:33:00,
2013-04-12 09:43:00,31.0,26.0,-100.00,SSW,205,21.0,29.0,84,0.00,,,-99.99,,2013-04-12 15:43:00,
2013-04-12 09:53:00,30.0,27.0,-100.00,SSW,209,21.0,27.0,88,0.00,,,-99.99,,2013-04-12 15:53:00,
2013-04-12 10:03:00,29.0,28.0,-100.00,SSW,212,17.0,24.0,93,0.00,,,-99.99,,2013-04-12 16:03:00,
2013-04-12 10:13:00,29.0,28.0,-100.00,SSW,208,17.0,22.0,95,0.00,,,-99.99,,2013-04-12 16:13:00,
2013-04-12 10:23:00,29.0,28.0,-100.00,SSW,206,16.0,21.0,94,0.00,,,-99.99,,2013-04-12 16:23:00,
2013-04-12 10:33:00,29.0,28.0,-100.00,SSW,206,17.0,21.0,95,0.00,,,-99.99,,2013-04-12 16:33:00,
2013-04-12 10:42:00,29.0,28.0,-100.00,SSW,209,15.0,21.0,95,0.00,,,-99.99,,2013-04-12 16:42:00,
2013-04-12 10:53:00,-999.0,-99.9,-100.00,SW,219,13.0,19.0,-999,-99.99,,,-99.99,,2013-04-12 16:53:00,
2013-04-12 11:03:00,30.0,29.0,-100.00,SW,216,14.0,21.0,95,0.00,,,-99.99,,2013-04-12 17:03:00,
2013-04-12 11:12:00,30.0,29.0,-100.00,SSW,212,13.0,18.0,95,0.00,,,-99.99,,2013-04-12 17:12:00,
2013-04-12 11:33:00,32.0,28.0,-100.00,SW,219,14.0,22.0,87,0.00,,,-99.99,,2013-04-12 17:33:00,
2013-04-12 11:44:00,32.0,27.0,-100.00,SW,220,16.0,21.0,82,0.00,,,-99.99,,2013-04-12 17:44:00,
2013-04-12 11:56:00,31.0,27.0,-100.00,SW,220,16.0,21.0,82,0.00,,,-99.99,,2013-04-12 17:56:00,
2013-04-12 12:09:00,31.0,27.0,-100.00,SW,219,15.0,21.0,84,0.00,,,-99.99,,2013-04-12 18:09:00,
2013-04-12 12:15:00,31.0,27.0,-100.00,SW,216,14.0,19.0,85,0.00,,,-99.99,,2013-04-12 18:15:00,
2013-04-12 13:26:00,33.0,29.0,-100.00,WSW,241,9.0,14.0,85,0.00,,,-99.99,,2013-04-12 19:26:00,
2013-04-12 13:32:00,33.0,27.0,-100.00,WSW,243,9.0,13.0,79,0.00,,,-99.99,,2013-04-12 19:32:00,
2013-04-12 13:42:00,33.0,27.0,-100.00,SW,234,11.0,17.0,78,0.00,,,-99.99,,2013-04-12 19:42:00,
2013-04-12 13:52:00,32.0,27.0,-100.00,SW,232,12.0,17.0,83,0.00,,,-99.99,,2013-04-12 19:52:00,
2013-04-12 14:02:00,35.0,28.0,-100.00,SW,219,9.0,14.0,76,0.00,,,-99.99,,2013-04-12 20:02:00,
2013-04-12 14:12:00,35.0,28.0,-100.00,SW,222,10.0,16.0,76,0.00,,,-99.99,,2013-04-12 20:12:00,
2013-04-12 14:22:00,35.0,27.0,-100.00,SSW,213,14.0,17.0,72,0.00,,,-99.99,,2013-04-12 20:22:00,
2013-04-12 14:32:00,36.0,28.0,-100.00,SSW,213,12.0,17.0,73,0.00,,,-99.99,,2013-04-12 20:32:00,
2013-04-12 14:42:00,36.0,28.0,-100.00,SSW,208,12.0,17.0,72,0.00,,,-99.99,,2013-04-12 20:42:00,
2013-04-12 14:52:00,36.0,25.0,-100.00,SSW,209,16.0,21.0,65,0.00,,,-99.99,,2013-04-12 20:52:00,
2013-04-12 15:02:00,37.0,25.0,-100.00,SSW,208,16.0,21.0,62,0.00,,,-99.99,,2013-04-12 21:02:00,
2013-04-12 15:12:00,36.0,24.0,-100.00,SSW,208,17.0,22.0,59,0.00,,,-99.99,,2013-04-12 21:12:00,
2013-04-12 15:22:00,37.0,22.0,-100.00,SSW,205,17.0,23.0,53,0.00,,,-99.99,,2013-04-12 21:22:00,
2013-04-12 15:32:00,37.0,25.0,-100.00,SSW,205,18.0,25.0,61,0.00,,,-99.99,,2013-04-12 21:32:00,
2013-04-12 15:43:00,38.0,25.0,-100.00,SSW,203,18.0,23.0,59,0.00,,,-99.99,,2013-04-12 21:43:00,
2013-04-12 15:52:00,38.0,24.0,-100.00,SSW,205,18.0,24.0,55,0.00,,,-99.99,,2013-04-12 21:52:00,
2013-04-12 16:02:00,39.0,20.0,-100.00,SSW,198,17.0,26.0,47,0.00,,,-99.99,,2013-04-12 22:02:00,
2013-04-12 16:12:00,39.0,19.0,-100.00,South,189,17.0,26.0,44,0.00,,,-99.99,,2013-04-12 22:12:00,
2013-04-12 16:22:00,39.0,20.0,-100.00,SSW,196,18.0,23.0,47,0.00,,,-99.99,,2013-04-12 22:22:00,
2013-04-12 16:32:00,39.0,20.0,-100.00,SSW,193,16.0,21.0,45,0.00,,,-99.99,,2013-04-12 22:32:00,
2013-04-12 16:42:00,40.0,20.0,-100.00,SSW,193,14.0,17.0,44,0.00,,,-99.99,,2013-04-12 22:42:00,
2013-04-12 16:52:00,40.0,18.0,-100.00,SSW,195,16.0,20.0,41,0.00,,,-99.99,,2013-04-12 22:52:00,
2013-04-12 17:03:00,40.0,17.0,-100.00,South,189,14.0,18.0,40,0.00,,,-99.99,,2013-04-12 23:03:00,
2013-04-12 17:12:00,39.0,21.0,-100.00,South,191,15.0,20.0,48,0.00,,,-99.99,,2013-04-12 23:12:00,
2013-04-12 17:22:00,40.0,21.0,-100.00,South,191,13.0,19.0,45,0.00,,,-99.99,,2013-04-12 23:22:00,
2013-04-12 17:32:00,40.0,19.0,-100.00,SSW,192,12.0,16.0,42,0.00,,,-99.99,,2013-04-12 23:32:00,
2013-04-12 17:42:00,40.0,21.0,-100.00,South,189,13.0,16.0,45,0.00,,,-99.99,,2013-04-12 23:42:00,
2013-04-12 17:52:00,40.0,23.0,-100.00,SSW,193,13.0,17.0,49,0.00,,,-99.99,,2013-04-12 23:52:00,
2013-04-12 18:02:00,40.0,21.0,-100.00,South,191,13.0,17.0,47,0.00,,,-99.99,,2013-04-13 00:02:00,
2013-04-12 18:12:00,40.0,18.0,-100.00,SSW,195,12.0,17.0,41,0.00,,,-99.99,,2013-04-13 00:12:00,
2013-04-12 18:22:00,-999.0,-99.9,-100.00,SSW,192,11.0,16.0,-999,-99.99,,,-99.99,,2013-04-13 00:22:00,
2013-04-12 18:32:00,41.0,20.0,-100.00,SSW,193,13.0,17.0,44,0.00,,,-99.99,,2013-04-13 00:32:00,
2013-04-12 18:42:00,40.0,20.0,-100.00,SSW,193,16.0,20.0,44,0.00,,,-99.99,,2013-04-13 00:42:00,
2013-04-12 18:52:00,40.0,21.0,-100.00,SSW,203,15.0,21.0,47,0.00,,,-99.99,,2013-04-13 00:52:00,
2013-04-12 19:02:00,40.0,22.0,-100.00,SSW,203,10.0,13.0,48,0.00,,,-99.99,,2013-04-13 01:02:00,
2013-04-12 19:12:00,39.0,24.0,-100.00,SSW,200,7.0,13.0,53,0.00,,,-99.99,,2013-04-13 01:12:00,
2013-04-12 19:22:00,33.0,26.0,-100.00,North,349,9.0,16.0,77,0.00,,,-99.99,,2013-04-13 01:22:00,
2013-04-12 19:32:00,32.0,27.0,-100.00,NNW,339,11.0,15.0,81,0.00,,,-99.99,,2013-04-13 01:32:00,
2013-04-12 19:42:00,32.0,27.0,-100.00,NNW,343,11.0,15.0,82,0.00,,,-99.99,,2013-04-13 01:42:00,
2013-04-12 19:52:00,31.0,27.0,-100.00,North,357,10.0,12.0,83,0.00,,,-99.99,,2013-04-13 01:52:00,
2013-04-12 20:02:00,31.0,26.0,-100.00,North,359,10.0,14.0,83,0.00,,,-99.99,,2013-04-13 02:02:00,
2013-04-12 20:12:00,31.0,26.0,-100.00,North,6,11.0,15.0,82,0.00,,,-99.99,,2013-04-13 02:12:00,
2013-04-12 20:22:00,31.0,26.0,-100.00,North,8,12.0,18.0,81,0.00,,,-99.99,,2013-04-13 02:22:00,
2013-04-12 20:32:00,30.0,26.0,-100.00,North,1,10.0,13.0,82,0.00,,,-99.99,,2013-04-13 02:32:00,
2013-04-12 20:42:00,30.0,26.0,-100.00,North,359,11.0,14.0,83,0.00,,,-99.99,,2013-04-13 02:42:00,
2013-04-12 20:52:00,30.0,26.0,-100.00,North,353,11.0,13.0,83,0.00,,,-99.99,,2013-04-13 02:52:00,
2013-04-12 21:02:00,29.0,25.0,-100.00,North,354,10.0,12.0,83,0.00,,,-99.99,,2013-04-13 03:02:00,
2013-04-12 21:12:00,29.0,25.0,-100.00,North,359,10.0,12.0,83,0.00,,,-99.99,,2013-04-13 03:12:00,
2013-04-12 21:23:00,-999.0,-99.9,-100.00,North,4,9.0,11.0,-999,-99.99,,,-99.99,,2013-04-13 03:23:00,
2013-04-12 21:33:00,30.0,25.0,-100.00,NNE,13,11.0,13.0,83,0.00,,,-99.99,,2013-04-13 03:33:00,
2013-04-12 21:42:00,30.0,24.0,-100.00,North,8,9.0,12.0,81,0.00,,,-99.99,,2013-04-13 03:42:00,
2013-04-12 21:52:00,30.0,24.0,-100.00,NNE,21,7.0,11.0,80,0.00,,,-99.99,,2013-04-13 03:52:00,
2013-04-12 22:03:00,29.0,23.0,-100.00,NE,52,6.0,10.0,78,0.00,,,-99.99,,2013-04-13 04:03:00,
2013-04-12 22:12:00,30.0,24.0,-100.00,East,95,4.0,6.0,79,0.00,,,-99.99,,2013-04-13 04:12:00,
2013-04-12 22:23:00,29.0,24.0,-100.00,SE,124,2.0,5.0,80,0.00,,,-99.99,,2013-04-13 04:23:00,
2013-04-12 22:33:00,30.0,24.0,-100.00,ESE,121,1.0,2.0,80,0.00,,,-99.99,,2013-04-13 04:33:00,
2013-04-12 22:42:00,30.0,24.0,-100.00,SE,144,1.0,2.0,77,0.00,,,-99.99,,2013-04-13 04:42:00,
2013-04-12 22:53:00,29.0,23.0,-100.00,SSE,160,1.0,4.0,78,0.00,,,-99.99,,2013-04-13 04:53:00,
2013-04-12 23:12:00,30.0,23.0,-100.00,SSE,158,1.0,3.0,76,0.00,,,-99.99,,2013-04-13 05:12:00,
2013-04-12 23:22:00,31.0,20.0,-100.00,SSE,155,4.0,9.0,64,0.00,,,-99.99,,2013-04-13 05:22:00,
2013-04-12 23:32:00,32.0,19.0,-100.00,SSE,161,8.0,12.0,59,0.00,,,-99.99,,2013-04-13 05:32:00,
2013-04-12 23:42:00,31.0,18.0,-100.00,SSE,162,8.0,13.0,57,0.00,,,-99.99,,2013-04-13 05:42:00,
2013-04-12 23:52:00,31.0,18.0,-100.00,SSE,157,9.0,12.0,57,0.00,,,-99.99,,2013-04-13 05:52:00,